Location: Izdebno
(52.6670°N, 16.2170°E)
Time: 18:29:41
(UTC+02:00)

Transit 4A - Pass Details

Date: 23 February 2024
Orbit: 871 x 972 km, 66.8° (Epoch: 21 April)

Event Time Altitude Azimuth Distance (km) Brightness Sun altitude
Rises 08:13:35 0° 316° (NW) 3,533 10.3 9.9°
Reaches altitude 10° 08:16:22 10° 326° (NW) 2,575 9.7 10.3°
Maximum altitude 08:21:44 34° 30° (NNE) 1,427 9.0 11.0°
Drops below altitude 10° 08:27:00 10° 95° (E) 2,528 11.4 11.6°
Sets 08:29:43 0° 105° (ESE) 3,459 12.4 12.0°
